Location: Grasslands National Park East Block
(49.0708°N, 106.5295°W)
Time: 09:43:34
(UTC-06:00)

SR - Pass Details

Date: 30 October 2019
Orbit: 574 x 882 km, 66.7° (Epoch: 11 November)

Event Time Altitude Azimuth Distance (km) Brightness Sun altitude
Exits shadow 02:56:59 13° 63° (ENE) 2,332 ? -46.1°
Drops below altitude 10° 02:57:53 10° 70° (ENE) 2,545 ? -46.0°
Sets 03:01:08 0° 87° (E) 3,476 ? -45.6°
